Location: Newark
(47.5833°N, 8.1500°E)
Time: 15:42:17
(UTC+00:00)

Tiros 1 - Pass Details

Date: 02 November 2020
Orbit: 630 x 664 km, 48.4° (Epoch: 29 November)

Event Time Altitude Azimuth Distance (km) Brightness Sun altitude
Exits shadow 03:01:27 29° 79° (E) 1,154 8.9 -32.6°
Drops below altitude 10° 03:03:45 10° 80° (E) 2,009 10.5 -32.2°
Sets 03:06:04 0° 80° (E) 2,917 11.6 -31.8°
